Tracking 28794 objects as of 22-Apr-2024
HD Live streaming from Space Station
objects crossing your sky now

GONETS M 19

Track GONETS M 19 now!
10-day predictions


NORAD ID: 46488
Int'l Code: 2020-068C
Perigee: 1,491.3 km
Apogee: 1,511.8 km
Inclination: 82.5 °
Period: 115.9 minutes
Semi major axis: 7872 km
RCS: Unknown
Launch date: September 28, 2020
Source: Commonwealth of Independent States (former USSR) (CIS)
Launch site: PLESETSK MISSILE AND SPACE COMPLEX (PKMTR)
Your satellite tracking list
Your tracking list is empty




NASA's NSSDC Master Catalog

Two Line Element Set (TLE):
1 46488U 20068C   24113.17152488  .00000071  00000-0  43906-3 0  9996
2 46488  82.4905 116.1805 0013026 326.4169  33.6084 12.42881767161711
Source of the keplerian elements: AFSPC